Cloud_Cover
33 37 4 2 0 0 3 0 0 22 5 0 0 0 0 0 0 0 0 0 0 2 30 3 0 0 0 0 5 5 43 100 100 16 5 5 5 1 0 0 0 0 0 0 18 40 57 54 100
0 2 0 0 0 0 0 0 0 0 0 0 0 0 0 0 0 0 0 0 0 0 12 21 0 0 0 0 0 2 76 100 100 100 46 68 35 5 0 0 0 0 2 0 19 4 24 100 26
0 15 0 0 0 0 0 0 0 0 0 0 0 0 0 0 0 0 0 0 0 0 3 16 46 0 0 0 5 7 19 100 100 100 100 100 100 88 5 0 0 0 32 53 0 12 0 7 0
29 0 0 0 0 0 0 0 0 1 5 0 0 0 0 0 0 0 0 0 0 0 0 86 90 0 0 0 0 96 99 100 100 100 100 100 100 100 9 5 0 0 67 75 21 0 0 0 0
54 0 0 0 0 0 0 0 0 0 0 0 0 0 0 0 0 0 0 0 0 0 0 10 45 0 4 0 0 0 98 100 100 100 100 100 100 100 97 5 5 4 1 13 37 91 17 0 0
91 0 0 0 0 0 0 0 0 0 5 2 0 0 0 0 0 0 0 0 0 2 1 75 60 8 0 0 0 0 1 95 100 100 100 100 100 100 100 7 5 5 4 100 100 100 0 0 0
45 26 2 0 0 0 4 0 0 0 0 62 4 0 0 0 0 0 0 0 0 0 0 96 75 2 0 0 0 0 0 6 100 100 100 100 100 100 100 100 90 5 18 100 100 48 4 0 9
0 38 20 0 2 2 0 0 0 0 0 0 5 3 0 0 0 0 0 0 0 3 1 43 3 11 15 0 0 0 0 20 14 99 100 100 98 100 100 100 100 100 20 97 72 5 5 4 0
3 76 2 15 0 0 0 0 0 0 0 0 1 1 4 0 0 0 1 0 9 14 1 0 2 7 28 17 5 0 0 3 12 85 100 100 100 100 100 100 84 100 100 92 4 5 5 5 5
32 52 93 21 2 0 0 0 0 0 0 0 18 6 4 2 0 0 4 0 20 0 39 30 58 5 40 54 12 2 0 0 6 53 100 100 100 91 100 100 79 79 100 100 34 23 5 7 3
8 61 92 99 83 2 5 4 0 0 0 5 2 93 5 5 0 0 0 1 0 0 0 45 57 1 51 75 42 72 5 3 0 2 7 100 100 100 100 100 90 33 12 38 100 96 49 5 2
19 94 93 73 100 100 100 92 13 4 0 0 0 20 100 3 0 0 3 0 0 1 0 0 44 11 63 51 61 57 0 3 0 8 1 71 90 100 100 100 100 99 100 88 74 65 78 97 12
5 4 4 34 98 100 100 100 100 4 4 1 0 1 83 100 5 0 6 0 1 2 1 14 46 1 99 41 91 26 0 0 0 73 5 39 98 99 100 91 100 100 100 100 99 92 49 20 5
0 0 0 0 0 0 11 14 95 17 6 20 72 0 63 100 83 5 20 72 20 4 91 50 12 14 100 45 83 86 5 0 0 42 4 84 100 100 100 68 100 100 100 62 61 37 6 54 6
0 0 0 0 0 0 0 0 0 2 7 31 10 96 2 100 100 77 6 100 100 69 5 68 18 3 100 100 74 100 26 78 0 36 66 14 86 95 100 67 100 100 42 22 41 19 5 6 8
0 0 0 0 3 52 81 25 4 5 48 13 22 5 75 5 100 100 98 100 100 100 9 72 39 13 100 100 96 91 100 36 17 15 66 85 80 73 100 95 100 100 59 18 3 5 4 2 0
0 0 0 0 0 1 34 8 0 0 12 99 40 82 9 5 98 100 87 96 100 100 100 64 97 96 98 100 98 48 100 9 19 48 66 99 76 100 100 100 82 100 5 5 5 5 5 4 0
0 0 0 0 0 4 3 2 0 0 0 13 4 12 71 5 19 100 100 100 99 100 100 100 100 72 100 100 100 74 71 97 96 76 100 94 100 100 100 100 100 100 0 2 0 1 0 0 0
0 7 64 0 1 100 13 35 0 0 0 5 0 0 34 9 5 100 100 100 100 97 81 100 100 84 100 100 100 98 72 100 100 100 97 3 100 100 100 100 32 100 0 0 0 0 0 0 0
20 14 3 1 5 100 4 0 0 0 10 18 72 0 3 5 22 98 100 100 100 100 87 34 82 100 100 100 100 100 100 100 100 100 30 29 100 100 100 100 100 100 0 0 0 0 0 1 5
5 10 80 98 12 43 45 13 0 26 9 98 38 0 0 6 100 98 100 100 100 100 68 100 15 100 100 100 100 100 100 100 100 100 100 60 34 100 100 100 100 100 54 11 4 5 4 0 5
9 40 47 99 100 88 97 76 61 30 93 83 100 95 0 1 100 100 99 100 100 100 100 80 52 100 100 100 100 100 71 70 100 100 100 8 9 99 100 83 100 100 55 22 6 5 5 5 42
50 5 8 84 98 30 76 100 98 75 83 100 8 0 0 14 90 100 49 100 100 100 100 100 93 97 100 100 100 100 100 82 100 74 100 44 7 100 100 100 100 100 44 8 8 14 90 100 100
7 2 98 100 12 69 99 100 100 70 94 100 99 0 0 3 100 100 94 100 100 100 86 100 63 100 100 100 100 100 100 100 70 100 78 98 46 100 100 100 100 100 54 5 28 55 100 100 100
75 11 40 42 58 98 100 91 100 100 100 99 99 100 4 0 66 100 100 92 100 100 100 26 11 100 100 100 100 100 100 100 99 100 100 100 97 75 100 100 100 100 100 100 100 48 7 5 5
99 100 100 99 98 100 100 100 100 100 100 100 100 75 20 4 1 100 100 69 100 100 100 96 27 100 100 100 100 100 100 100 100 100 98 93 100 63 84 100 100 100 100 100 100 100 78 5 5
98 100 100 100 100 100 98 100 100 100 100 34 74 86 50 7 77 10 82 68 73 96 100 100 79 94 100 100 100 100 100 100 100 100 100 100 100 100 14 100 100 100 100 100 100 100 7 5 5
100 100 53 100 98 85 100 100 100 100 100 100 79 100 94 71 100 74 5 44 67 69 100 100 30 80 100 100 100 100 100 100 100 100 100 100 100 100 81 100 100 100 100 100 98 68 82 6 36
94 99 100 100 100 100 97 100 100 100 100 100 100 100 100 72 70 92 56 64 88 100 100 100 71 100 100 100 100 100 100 100 100 100 96 100 100 100 100 100 100 100 100 98 75 65 5 5 12
100 100 100 100 100 100 100 94 100 100 100 100 100 100 100 100 100 100 100 100 100 100 100 100 70 100 100 100 100 100 100 100 100 100 100 100 100 100 100 100 100 100 99 96 82 100 59 82 99